Location: *
(49.3500°N, 12.6000°E)
Time: 23:57:51
(UTC+00:00)

Cosmos 1727 Rocket - Pass Details

Date: 18 October 2019
Orbit: 961 x 996 km, 82.9° (Epoch: 22 November)

Event Time Altitude Azimuth Distance (km) Brightness Sun altitude
Rises 17:41:32 0° 171° (S) 3,641 6.9 -14.9°
Reaches altitude 10° 17:44:05 10° 167° (SSE) 2,696 6.2 -15.4°
Maximum altitude 17:50:03 54° 92° (E) 1,154 4.0 -16.3°
Drops below altitude 10° 17:56:03 10° 17° (NNE) 2,709 6.2 -17.3°
Sets 17:58:36 0° 13° (NNE) 3,661 6.9 -17.7°
